GEC7415 EDDH-LOWW

Flight info

Callsign GEC7415
Flight time N/A
Altitude 41000
Route AMLUH2C/05 AMLUH M852 DENIX DCT ZUCKA DCT OMELO DCT EVIKU DCT BITSI DCT MIKOV MIKOV8W
Aircraft A333/H-SDE3GHIJ2J3J5M1RVWXY/LB2D1

Departure

Time 2026-04-20 14:21
Airport Hamburg Helmut Schmidt Airport (EDDH)

Arrival

Time N/A
Airport Vienna International Airport (LOWW)
Time Latitude Longitude Altitude Speed Heading
2026-04-20 13:56 53.62802 9.99070 48 ft 0 kts 61°
2026-04-20 14:05 53.62800 9.99065 48 ft 3 kts 59°
2026-04-20 14:06 53.62790 9.99036 46 ft 3 kts 35°
2026-04-20 14:06 53.62772 9.99023 42 ft 3 kts 15°
2026-04-20 14:06 53.62758 9.99016 44 ft 0 kts
2026-04-20 14:06 53.62742 9.99013 42 ft 3 kts 338°
2026-04-20 14:07 53.62738 9.99016 42 ft 0 kts 334°
2026-04-20 14:07 53.62739 9.99015 42 ft 0 kts 334°
2026-04-20 14:08 53.62743 9.99012 42 ft 0 kts 333°
2026-04-20 14:09 53.62746 9.99009 47 ft 1 kts 334°
2026-04-20 14:09 53.62750 9.99006 47 ft 0 kts 332°
2026-04-20 14:12 53.62758 9.98999 47 ft 3 kts 334°
2026-04-20 14:13 53.62783 9.98976 47 ft 5 kts 330°
2026-04-20 14:13 53.62815 9.98941 47 ft 6 kts 320°
2026-04-20 14:13 53.62827 9.98873 47 ft 7 kts 261°
2026-04-20 14:13 53.62805 9.98793 47 ft 9 kts 238°
2026-04-20 14:14 53.62765 9.98703 46 ft 10 kts 232°
2026-04-20 14:14 53.62717 9.98606 46 ft 11 kts 232°
2026-04-20 14:14 53.62666 9.98501 46 ft 12 kts 229°
2026-04-20 14:14 53.62608 9.98383 46 ft 14 kts 230°
2026-04-20 14:15 53.62544 9.98256 46 ft 13 kts 233°
2026-04-20 14:15 53.62475 9.98143 45 ft 15 kts 220°
2026-04-20 14:15 53.62398 9.98024 45 ft 16 kts 228°
2026-04-20 14:15 53.62323 9.97873 45 ft 17 kts 230°
2026-04-20 14:16 53.62245 9.97715 44 ft 18 kts 231°
2026-04-20 14:16 53.62162 9.97541 44 ft 19 kts 231°
2026-04-20 14:16 53.62073 9.97362 44 ft 20 kts 231°
2026-04-20 14:16 53.61981 9.97174 43 ft 22 kts 232°
2026-04-20 14:17 53.61881 9.96973 42 ft 23 kts 228°
2026-04-20 14:17 53.61777 9.96766 42 ft 24 kts 230°
2026-04-20 14:17 53.61697 9.96600 42 ft 17 kts 236°
2026-04-20 14:17 53.61685 9.96461 42 ft 8 kts 295°
2026-04-20 14:18 53.61710 9.96430 42 ft 0 kts 344°
2026-04-20 14:19 53.61711 9.96430 42 ft 1 kts 345°
2026-04-20 14:19 53.61734 9.96426 42 ft 6 kts 357°
2026-04-20 14:19 53.61774 9.96425 43 ft 6 kts
2026-04-20 14:19 53.61815 9.96430 43 ft 6 kts
2026-04-20 14:20 53.61857 9.96458 42 ft 7 kts 30°
2026-04-20 14:20 53.61900 9.96527 44 ft 17 kts 47°
2026-04-20 14:20 53.62115 9.96955 44 ft 79 kts 50°
2026-04-20 14:20 53.62579 9.97897 46 ft 132 kts 50°
2026-04-20 14:21 53.63234 9.99221 428 ft 154 kts 46°
2026-04-20 14:21 53.63957 10.00669 1105 ft 170 kts 49°
2026-04-20 14:21 53.64748 10.02275 1840 ft 187 kts 51°
2026-04-20 14:21 53.65609 10.04095 2388 ft 211 kts 52°
2026-04-20 14:22 53.66567 10.06062 3114 ft 216 kts 51°
2026-04-20 14:22 53.67512 10.07960 4114 ft 209 kts 51°
2026-04-20 14:22 53.68440 10.09835 5125 ft 206 kts 51°
2026-04-20 14:22 53.69351 10.11686 6130 ft 204 kts 52°
2026-04-20 14:23 53.70196 10.13624 6961 ft 207 kts 63°
2026-04-20 14:23 53.70600 10.15964 7731 ft 213 kts 88°
2026-04-20 14:23 53.70265 10.18400 8582 ft 220 kts 115°
2026-04-20 14:23 53.69174 10.20383 9020 ft 250 kts 146°
2026-04-20 14:24 53.67485 10.21459 9522 ft 271 kts 160°
2026-04-20 14:24 53.65626 10.22241 10285 ft 278 kts 162°
2026-04-20 14:24 53.63694 10.23031 10729 ft 295 kts 161°
2026-04-20 14:24 53.61633 10.23913 11020 ft 316 kts 162°
2026-04-20 14:25 53.59438 10.24874 11327 ft 336 kts 162°
2026-04-20 14:25 53.57117 10.25903 11718 ft 351 kts 161°
2026-04-20 14:25 53.54726 10.26968 12332 ft 360 kts 162°
2026-04-20 14:25 53.52284 10.28059 12940 ft 367 kts 162°
2026-04-20 14:26 53.49795 10.29170 13641 ft 372 kts 162°
2026-04-20 14:26 53.47270 10.30298 14289 ft 378 kts 162°
2026-04-20 14:26 53.44717 10.31441 14931 ft 381 kts 162°
2026-04-20 14:26 53.42130 10.32598 15589 ft 385 kts 162°
2026-04-20 14:27 53.39528 10.33768 16243 ft 389 kts 162°
2026-04-20 14:27 53.36901 10.34951 16873 ft 393 kts 162°
2026-04-20 14:27 53.34239 10.36149 17470 ft 398 kts 162°
2026-04-20 14:27 53.31558 10.37354 18085 ft 402 kts 162°
2026-04-20 14:28 53.28841 10.38574 18641 ft 406 kts 162°
2026-04-20 14:28 53.26109 10.39798 19237 ft 407 kts 162°
2026-04-20 14:28 53.23398 10.41009 19782 ft 410 kts 162°
2026-04-20 14:28 53.20628 10.42246 20321 ft 414 kts 163°
2026-04-20 14:29 53.17834 10.43492 20856 ft 417 kts 163°
2026-04-20 14:29 53.15017 10.44745 21370 ft 420 kts 163°
2026-04-20 14:29 53.12165 10.45959 21851 ft 424 kts 165°
2026-04-20 14:29 53.09273 10.46989 22363 ft 427 kts 167°
2026-04-20 14:30 53.06343 10.47910 22829 ft 431 kts 168°
2026-04-20 14:30 53.03385 10.48789 23289 ft 434 kts 168°
2026-04-20 14:30 53.00397 10.49665 23753 ft 437 kts 168°
2026-04-20 14:30 52.97395 10.50555 24172 ft 439 kts 168°
2026-04-20 14:31 52.94380 10.51463 24588 ft 441 kts 167°
2026-04-20 14:31 52.91352 10.52386 25002 ft 444 kts 167°
2026-04-20 14:31 52.89336 10.53005 25273 ft 445 kts 167°
2026-04-20 14:31 52.86283 10.53947 25687 ft 447 kts 167°
2026-04-20 14:32 52.83209 10.54897 26073 ft 450 kts 167°
2026-04-20 14:32 52.80129 10.55847 26479 ft 452 kts 167°
2026-04-20 14:32 52.77037 10.56800 26887 ft 454 kts 167°
2026-04-20 14:32 52.73923 10.57758 27367 ft 454 kts 167°